Simultaneous Nadir Overpasses (SNOs) Predictions

Prediction of SNOs between METOP-B and NOAA-19 Satellite Orbit:

Table of predicted SNOs for the next 14.0 days since TLE Epoch: 4/29/2023
Index Date (METOP-B) Time (METOP-B) Lat,Lon (METOP-B) SZA (METOP-B ) Date (NOAA-19) Time (NOAA-19) Lat,Lon (NOAA-19) SZA (NOAA-19 ) Distance(km) Time Diff (sec)
1 05/09/2023 11:53:31 -80.93,-143.86 114.71 05/09/2023 11:52:32 -80.93,-143.86 114.74 0.28 59
2 05/09/2023 12:44:12 80.92, 23.29 65.26 05/09/2023 12:43:26 80.93, 23.43 65.26 2.61 46
3 05/09/2023 13:34:53 -80.92,-169.37 114.76 05/09/2023 13:34:31 -80.93,-169.30 114.75 1.45 22
4 05/09/2023 14:25:33 80.93, -1.86 65.26 05/09/2023 14:25:25 80.93, -2.00 65.25 2.49 8
5 05/09/2023 15:16:14 -80.93, 165.48 114.75 05/09/2023 15:16:29 -80.93, 165.64 114.73 2.82 15
6 05/09/2023 16:06:54 80.94, -27.01 65.27 05/09/2023 16:07:23 80.93, -27.06 65.27 1.24 29
7 05/09/2023 16:57:35 -80.94, 140.33 114.74 05/09/2023 16:58:28 -80.93, 140.21 114.74 2.36 53



Historial Predications of SNOs between METOP-B and NOAA-19
